Time,TemperatureF,DewpointF,PressureIn,WindDirection,WindDirectionDegrees,WindSpeedMPH,WindSpeedGustMPH,Humidity,HourlyPrecipIn,Conditions,Clouds,dailyrainin,SoftwareType,DateUTC
2013-06-10 00:14:00,65.6,60.0,30.18,WSW,244,0.0,-999.0,83,-99.99,,,0.00,weatherlink.com 1.10,2013-06-10 04:14:00,
2013-06-10 00:29:00,65.3,60.0,30.19,SW,235,0.0,-999.0,84,-99.99,,,0.00,weatherlink.com 1.10,2013-06-10 04:29:00,
2013-06-10 00:44:00,65.0,60.0,30.19,SW,235,0.0,-999.0,85,-99.99,,,0.00,weatherlink.com 1.10,2013-06-10 04:44:00,
2013-06-10 00:59:00,64.7,60.0,30.19,SW,235,0.0,-999.0,85,-99.99,,,0.00,weatherlink.com 1.10,2013-06-10 04:59:00,
2013-06-10 01:14:00,64.3,60.0,30.19,SW,235,0.0,-999.0,85,-99.99,,,0.00,weatherlink.com 1.10,2013-06-10 05:14:00,
2013-06-10 01:29:00,64.0,60.0,30.19,SW,235,0.0,-999.0,86,-99.99,,,0.00,weatherlink.com 1.10,2013-06-10 05:29:00,
2013-06-10 01:44:00,63.5,59.0,30.19,SW,235,1.0,-999.0,86,-99.99,,,0.00,weatherlink.com 1.10,2013-06-10 05:44:00,
2013-06-10 01:59:00,63.5,60.0,30.19,SW,235,0.0,-999.0,87,-99.99,,,0.00,weatherlink.com 1.10,2013-06-10 05:59:00,
2013-06-10 02:14:00,63.7,61.0,30.18,SW,235,0.0,-999.0,89,-99.99,,,0.00,weatherlink.com 1.10,2013-06-10 06:14:00,
2013-06-10 02:29:00,63.2,60.0,30.19,SW,235,0.0,-999.0,89,-99.99,,,0.00,weatherlink.com 1.10,2013-06-10 06:29:00,
2013-06-10 02:44:00,62.6,59.0,30.18,SW,235,0.0,-999.0,89,-99.99,,,0.00,weatherlink.com 1.10,2013-06-10 06:44:00,
2013-06-10 02:59:00,62.4,59.0,30.18,SW,235,0.0,-999.0,89,-99.99,,,0.00,weatherlink.com 1.10,2013-06-10 06:59:00,
2013-06-10 03:14:00,62.3,59.0,30.18,SW,235,0.0,-999.0,89,-99.99,,,0.00,weatherlink.com 1.10,2013-06-10 07:14:00,
2013-06-10 03:29:00,62.1,59.0,30.18,SW,235,0.0,-999.0,90,-99.99,,,0.00,weatherlink.com 1.10,2013-06-10 07:29:00,
2013-06-10 03:44:00,62.3,60.0,30.18,SW,235,0.0,-999.0,91,-99.99,,,0.00,weatherlink.com 1.10,2013-06-10 07:44:00,
2013-06-10 03:59:00,62.3,60.0,30.18,SW,235,0.0,-999.0,91,-99.99,,,0.00,weatherlink.com 1.10,2013-06-10 07:59:00,
2013-06-10 04:14:00,62.1,60.0,30.18,SW,235,0.0,-999.0,91,-99.99,,,0.00,weatherlink.com 1.10,2013-06-10 08:14:00,
2013-06-10 04:29:00,62.0,60.0,30.17,SW,235,0.0,-999.0,92,-99.99,,,0.00,weatherlink.com 1.10,2013-06-10 08:29:00,
2013-06-10 04:44:00,61.8,60.0,30.18,SW,235,0.0,-999.0,92,-99.99,,,0.00,weatherlink.com 1.10,2013-06-10 08:44:00,
2013-06-10 04:59:00,61.6,59.0,30.18,SW,235,0.0,-999.0,92,-99.99,,,0.00,weatherlink.com 1.10,2013-06-10 08:59:00,
2013-06-10 05:14:00,61.6,60.0,30.18,SW,235,0.0,-999.0,93,-99.99,,,0.00,weatherlink.com 1.10,2013-06-10 09:14:00,
2013-06-10 05:29:00,61.6,60.0,30.18,SW,235,0.0,-999.0,93,-99.99,,,0.00,weatherlink.com 1.10,2013-06-10 09:29:00,
2013-06-10 05:44:00,61.6,60.0,30.18,SW,235,0.0,-999.0,93,-99.99,,,0.00,weatherlink.com 1.10,2013-06-10 09:44:00,
2013-06-10 05:59:00,61.8,60.0,30.18,SW,235,0.0,-999.0,94,-99.99,,,0.00,weatherlink.com 1.10,2013-06-10 09:59:00,
2013-06-10 06:14:00,62.1,60.0,30.18,SW,235,0.0,-999.0,94,-99.99,,,0.00,weatherlink.com 1.10,2013-06-10 10:14:00,
2013-06-10 06:29:00,62.6,61.0,30.18,SW,235,0.0,-999.0,95,-99.99,,,0.00,weatherlink.com 1.10,2013-06-10 10:29:00,
2013-06-10 06:44:00,63.2,62.0,30.18,SW,233,1.0,-999.0,95,-99.99,,,0.00,weatherlink.com 1.10,2013-06-10 10:44:00,
2013-06-10 06:59:00,63.9,63.0,30.18,ENE,66,0.0,-999.0,95,-99.99,,,0.00,weatherlink.com 1.10,2013-06-10 10:59:00,
2013-06-10 07:15:00,64.5,63.0,30.18,East,99,1.0,-999.0,95,-99.99,,,0.00,weatherlink.com 1.10,2013-06-10 11:15:00,
2013-06-10 07:29:00,65.2,64.0,30.18,ENE,71,1.0,-999.0,96,-99.99,,,0.00,weatherlink.com 1.10,2013-06-10 11:29:00,
2013-06-10 07:44:00,66.0,65.0,30.18,ENE,78,1.0,-999.0,96,-99.99,,,0.00,weatherlink.com 1.10,2013-06-10 11:44:00,
2013-06-10 07:59:00,66.9,66.0,30.18,East,100,2.0,-999.0,95,-99.99,,,0.00,weatherlink.com 1.10,2013-06-10 11:59:00,
2013-06-10 08:14:00,67.4,66.0,30.17,East,86,0.0,-999.0,95,-99.99,,,0.00,weatherlink.com 1.10,2013-06-10 12:14:00,
2013-06-10 08:29:00,68.1,66.0,30.18,ENE,78,2.0,-999.0,94,-99.99,,,0.00,weatherlink.com 1.10,2013-06-10 12:29:00,
2013-06-10 08:44:00,68.3,66.0,30.17,ESE,109,1.0,-999.0,92,-99.99,,,0.00,weatherlink.com 1.10,2013-06-10 12:44:00,
2013-06-10 08:59:00,68.3,65.0,30.18,ENE,71,2.0,-999.0,90,-99.99,,,0.00,weatherlink.com 1.10,2013-06-10 12:59:00,
2013-06-10 09:14:00,68.6,65.0,30.17,ENE,59,3.0,-999.0,88,-99.99,,,0.00,weatherlink.com 1.10,2013-06-10 13:14:00,
2013-06-10 09:29:00,68.8,65.0,30.17,ESE,114,0.0,-999.0,87,-99.99,,,0.00,weatherlink.com 1.10,2013-06-10 13:29:00,
2013-06-10 09:44:00,69.1,65.0,30.17,ENE,63,3.0,-999.0,86,-99.99,,,0.00,weatherlink.com 1.10,2013-06-10 13:44:00,
2013-06-10 09:59:00,69.4,65.0,30.17,ENE,69,2.0,-999.0,86,-99.99,,,0.00,weatherlink.com 1.10,2013-06-10 13:59:00,
2013-06-10 10:14:00,69.6,65.0,30.17,ESE,104,4.0,-999.0,85,-99.99,,,0.00,weatherlink.com 1.10,2013-06-10 14:14:00,
2013-06-10 10:29:00,70.9,67.0,30.17,ENE,61,3.0,-999.0,86,-99.99,,,0.00,weatherlink.com 1.10,2013-06-10 14:29:00,
2013-06-10 10:44:00,73.3,66.0,30.16,East,79,1.0,-999.0,78,-99.99,,,0.00,weatherlink.com 1.10,2013-06-10 14:44:00,
2013-06-10 10:59:00,74.4,66.0,30.16,ENE,60,3.0,-999.0,76,-99.99,,,0.00,weatherlink.com 1.10,2013-06-10 14:59:00,
2013-06-10 11:14:00,75.8,67.0,30.15,ENE,71,2.0,-999.0,73,-99.99,,,0.00,weatherlink.com 1.10,2013-06-10 15:14:00,
2013-06-10 11:29:00,75.8,67.0,30.15,ESE,113,3.0,-999.0,73,-99.99,,,0.00,weatherlink.com 1.10,2013-06-10 15:29:00,
2013-06-10 11:44:00,76.0,66.0,30.16,ENE,69,3.0,-999.0,71,-99.99,,,0.00,weatherlink.com 1.10,2013-06-10 15:44:00,
2013-06-10 11:59:00,75.6,66.0,30.16,ESE,106,2.0,-999.0,71,-99.99,,,0.00,weatherlink.com 1.10,2013-06-10 15:59:00,
2013-06-10 12:14:00,75.3,65.0,30.16,ESE,116,3.0,-999.0,71,-99.99,,,0.00,weatherlink.com 1.10,2013-06-10 16:14:00,
2013-06-10 12:29:00,74.6,65.0,30.15,SE,141,1.0,-999.0,72,-99.99,,,0.00,weatherlink.com 1.10,2013-06-10 16:29:00,
2013-06-10 12:44:00,74.6,65.0,30.15,ENE,65,2.0,-999.0,73,-99.99,,,0.00,weatherlink.com 1.10,2013-06-10 16:44:00,
2013-06-10 12:59:00,74.4,65.0,30.15,ESE,123,4.0,-999.0,72,-99.99,,,0.00,weatherlink.com 1.10,2013-06-10 16:59:00,
2013-06-10 13:14:00,74.2,65.0,30.15,SE,133,2.0,-999.0,72,-99.99,,,0.00,weatherlink.com 1.10,2013-06-10 17:14:00,
2013-06-10 13:29:00,73.7,65.0,30.14,SE,131,4.0,-999.0,73,-99.99,,,0.00,weatherlink.com 1.10,2013-06-10 17:29:00,
2013-06-10 13:44:00,73.2,65.0,30.15,ENE,73,1.0,-999.0,75,-99.99,,,0.00,weatherlink.com 1.10,2013-06-10 17:44:00,
2013-06-10 13:59:00,72.5,65.0,30.14,ENE,72,0.0,-999.0,78,-99.99,,,0.01,weatherlink.com 1.10,2013-06-10 17:59:00,
2013-06-10 14:14:00,71.1,65.0,30.15,ESE,117,4.0,-999.0,81,-99.99,,,0.01,weatherlink.com 1.10,2013-06-10 18:14:00,
2013-06-10 14:29:00,70.1,65.0,30.14,ESE,109,5.0,-999.0,83,-99.99,,,0.01,weatherlink.com 1.10,2013-06-10 18:29:00,
2013-06-10 14:44:00,69.6,65.0,30.13,ESE,108,4.0,-999.0,85,-99.99,,,0.02,weatherlink.com 1.10,2013-06-10 18:44:00,
2013-06-10 14:59:00,68.9,65.0,30.13,SSE,149,4.0,-999.0,87,-99.99,,,0.04,weatherlink.com 1.10,2013-06-10 18:59:00,
2013-06-10 15:14:00,68.4,65.0,30.12,East,86,4.0,-999.0,88,-99.99,,,0.05,weatherlink.com 1.10,2013-06-10 19:14:00,
2013-06-10 15:29:00,67.8,65.0,30.11,SE,126,5.0,-999.0,89,-99.99,,,0.08,weatherlink.com 1.10,2013-06-10 19:29:00,
2013-06-10 15:44:00,67.6,65.0,30.11,East,94,0.0,-999.0,90,-99.99,,,0.11,weatherlink.com 1.10,2013-06-10 19:44:00,
2013-06-10 15:59:00,67.1,64.0,30.10,ESE,118,0.0,-999.0,90,-99.99,,,0.13,weatherlink.com 1.10,2013-06-10 19:59:00,
2013-06-10 16:14:00,66.4,64.0,30.10,SE,137,4.0,-999.0,91,-99.99,,,0.17,weatherlink.com 1.10,2013-06-10 20:14:00,
2013-06-10 16:29:00,65.3,62.0,30.10,ESE,120,3.0,-999.0,90,-99.99,,,0.21,weatherlink.com 1.10,2013-06-10 20:29:00,
2013-06-10 16:44:00,63.9,61.0,30.11,ENE,78,3.0,-999.0,90,-99.99,,,0.27,weatherlink.com 1.10,2013-06-10 20:44:00,
2013-06-10 16:59:00,63.4,61.0,30.09,ESE,118,0.0,-999.0,91,-99.99,,,0.32,weatherlink.com 1.10,2013-06-10 20:59:00,
2013-06-10 17:14:00,63.2,61.0,30.09,East,98,2.0,-999.0,91,-99.99,,,0.35,weatherlink.com 1.10,2013-06-10 21:14:00,
2013-06-10 17:29:00,62.7,60.0,30.08,SE,135,3.0,-999.0,92,-99.99,,,0.41,weatherlink.com 1.10,2013-06-10 21:29:00,
2013-06-10 17:44:00,62.4,60.0,30.07,East,80,5.0,-999.0,92,-99.99,,,0.48,weatherlink.com 1.10,2013-06-10 21:44:00,
2013-06-10 17:59:00,62.3,60.0,30.06,East,96,2.0,-999.0,93,-99.99,,,0.52,weatherlink.com 1.10,2013-06-10 21:59:00,
2013-06-10 18:14:00,62.0,60.0,30.04,ESE,108,3.0,-999.0,93,-99.99,,,0.54,weatherlink.com 1.10,2013-06-10 22:14:00,
2013-06-10 18:29:00,61.6,60.0,30.04,East,101,3.0,-999.0,93,-99.99,,,0.55,weatherlink.com 1.10,2013-06-10 22:29:00,
2013-06-10 18:44:00,61.5,60.0,30.03,East,99,6.0,-999.0,94,-99.99,,,0.66,weatherlink.com 1.10,2013-06-10 22:44:00,
2013-06-10 18:59:00,61.2,60.0,30.03,ESE,106,3.0,-999.0,94,-99.99,,,0.85,weatherlink.com 1.10,2013-06-10 22:59:00,
2013-06-10 19:14:00,60.9,60.0,30.02,East,99,6.0,-999.0,95,-99.99,,,0.97,weatherlink.com 1.10,2013-06-10 23:14:00,
2013-06-10 19:29:00,60.5,59.0,30.00,East,82,5.0,-999.0,95,-99.99,,,1.17,weatherlink.com 1.10,2013-06-10 23:29:00,
2013-06-10 19:44:00,60.5,59.0,30.00,South,173,6.0,-999.0,95,-99.99,,,1.43,weatherlink.com 1.10,2013-06-10 23:44:00,
2013-06-10 19:59:00,60.5,59.0,30.00,East,80,10.0,-999.0,96,-99.99,,,1.53,weatherlink.com 1.10,2013-06-10 23:59:00,
2013-06-10 20:14:00,60.5,59.0,29.99,ENE,75,10.0,-999.0,96,-99.99,,,1.63,weatherlink.com 1.10,2013-06-11 00:14:00,
2013-06-10 20:29:00,60.4,59.0,29.98,East,96,6.0,-999.0,96,-99.99,,,1.82,weatherlink.com 1.10,2013-06-11 00:29:00,
2013-06-10 20:44:00,60.2,59.0,29.98,East,85,7.0,-999.0,96,-99.99,,,1.93,weatherlink.com 1.10,2013-06-11 00:44:00,
2013-06-10 20:59:00,60.1,59.0,29.98,ESE,116,14.0,-999.0,96,-99.99,,,2.03,weatherlink.com 1.10,2013-06-11 00:59:00,
2013-06-10 21:14:00,60.2,59.0,29.97,ENE,66,8.0,-999.0,96,-99.99,,,2.13,weatherlink.com 1.10,2013-06-11 01:14:00,
2013-06-10 21:29:00,60.2,59.0,29.97,East,91,9.0,-999.0,96,-99.99,,,2.21,weatherlink.com 1.10,2013-06-11 01:29:00,
2013-06-10 21:44:00,60.2,59.0,29.98,East,87,3.0,-999.0,97,-99.99,,,2.23,weatherlink.com 1.10,2013-06-11 01:44:00,
2013-06-10 21:59:00,60.2,59.0,29.98,ENE,64,8.0,-999.0,97,-99.99,,,2.25,weatherlink.com 1.10,2013-06-11 01:59:00,
2013-06-10 22:14:00,60.4,60.0,29.97,ENE,72,4.0,-999.0,97,-99.99,,,2.28,weatherlink.com 1.10,2013-06-11 02:14:00,
2013-06-10 22:29:00,60.4,60.0,29.97,East,80,3.0,-999.0,97,-99.99,,,2.29,weatherlink.com 1.10,2013-06-11 02:29:00,
2013-06-10 22:44:00,60.7,60.0,29.96,ESE,108,10.0,-999.0,97,-99.99,,,2.30,weatherlink.com 1.10,2013-06-11 02:44:00,
2013-06-10 22:59:00,60.7,60.0,29.95,NE,50,3.0,-999.0,97,-99.99,,,2.31,weatherlink.com 1.10,2013-06-11 02:59:00,
2013-06-10 23:14:00,60.7,60.0,29.94,East,84,6.0,-999.0,97,-99.99,,,0.01,weatherlink.com 1.10,2013-06-11 03:14:00,
2013-06-10 23:29:00,60.9,60.0,29.93,NE,51,4.0,-999.0,97,-99.99,,,0.09,weatherlink.com 1.10,2013-06-11 03:29:00,
2013-06-10 23:44:00,61.0,61.0,29.92,ENE,73,6.0,-999.0,98,-99.99,,,0.10,weatherlink.com 1.10,2013-06-11 03:44:00,
2013-06-10 23:59:00,61.0,61.0,29.92,East,86,7.0,-999.0,98,-99.99,,,0.11,weatherlink.com 1.10,2013-06-11 03:59:00,